Temperature
-12 -11 -11 -10 -10 -9 -9 -9 -9 -8 -7 -7 -6 -4 -4 -2 -1 0 3 4 5 6 7 9 10 11 11 12 12 13 13 13 13 13 14 14 14 14
-11 -11 -10 -10 -9 -9 -8 -8 -8 -8 -8 -7 -6 -5 -4 -3 -2 -0 2 4 5 6 7 8 9 10 11 11 12 12 13 13 13 13 13 13 14 14
-11 -10 -10 -9 -9 -9 -9 -8 -8 -8 -8 -7 -6 -5 -4 -3 -2 -1 1 3 5 6 7 8 9 10 10 11 11 12 12 13 13 13 13 13 13 13
-10 -10 -10 -10 -9 -9 -9 -9 -9 -8 -8 -8 -7 -5 -4 -3 -2 -1 1 2 4 6 6 7 8 9 10 11 11 11 12 12 13 13 13 13 13 13
-10 -10 -10 -10 -10 -9 -9 -9 -9 -9 -9 -8 -7 -5 -4 -3 -2 -1 0 2 4 5 6 7 8 9 10 10 11 11 12 12 13 13 13 12 12 12
-10 -10 -10 -10 -10 -10 -10 -10 -10 -10 -9 -9 -7 -6 -4 -3 -2 -1 0 2 3 5 6 7 8 8 9 10 10 11 11 12 13 13 12 12 12 12
-11 -11 -10 -11 -10 -10 -11 -10 -10 -10 -10 -9 -8 -6 -4 -3 -3 -2 -1 1 3 5 6 7 7 8 9 9 10 10 11 12 12 13 13 12 12 11
-12 -11 -11 -11 -11 -11 -11 -11 -11 -10 -10 -10 -9 -8 -6 -5 -4 -2 -2 -0 2 4 5 6 7 7 8 9 10 10 10 11 12 12 13 12 12 11
-13 -12 -12 -12 -11 -11 -11 -11 -11 -11 -11 -11 -10 -9 -8 -6 -5 -3 -2 -1 0 2 4 5 6 7 7 8 9 10 10 11 11 12 12 13 12 12
-13 -13 -13 -12 -12 -11 -11 -11 -11 -11 -11 -11 -11 -10 -8 -7 -6 -4 -3 -1 -0 1 3 5 5 6 7 8 8 9 10 10 11 12 12 12 12 11
-13 -13 -13 -13 -12 -12 -12 -12 -12 -11 -11 -10 -10 -9 -8 -7 -6 -4 -3 -2 -1 1 2 4 5 5 6 7 8 9 9 10 10 11 11 11 11 11
-14 -14 -14 -13 -13 -13 -13 -13 -12 -12 -11 -10 -9 -9 -8 -7 -6 -5 -3 -2 -1 0 1 3 4 4 5 6 7 8 8 9 9 10 10 10 10 10
-14 -15 -14 -14 -14 -14 -13 -13 -13 -12 -11 -10 -10 -9 -8 -7 -6 -5 -4 -2 -1 -0 1 2 3 3 4 6 7 7 7 8 9 9 9 9 10 10
-14 -15 -14 -14 -14 -14 -14 -13 -12 -11 -11 -11 -10 -9 -8 -7 -6 -5 -4 -3 -1 -0 0 1 2 2 3 5 6 7 7 7 8 8 8 8 9 9
-14 -14 -15 -15 -14 -14 -14 -13 -12 -12 -12 -11 -11 -11 -10 -9 -6 -5 -4 -3 -2 -1 -0 1 1 2 3 5 6 6 6 6 7 7 7 7 7 7
-14 -14 -14 -14 -14 -14 -13 -13 -13 -13 -12 -12 -12 -11 -10 -9 -7 -5 -4 -3 -2 -2 -1 0 1 2 3 4 5 5 5 5 5 5 5 5 4 5
-14 -13 -13 -14 -14 -14 -14 -14 -13 -13 -12 -12 -12 -11 -10 -9 -8 -7 -5 -3 -3 -2 -1 -0 1 2 2 3 4 4 5 4 4 4 5 4 3 3
-13 -13 -14 -14 -14 -14 -14 -14 -14 -14 -13 -13 -12 -12 -11 -10 -9 -8 -7 -5 -3 -2 -1 -1 0 1 2 1 2 3 4 4 3 3 4 4 2 1
-13 -13 -13 -13 -14 -14 -14 -14 -14 -14 -13 -13 -12 -12 -11 -11 -10 -9 -8 -7 -5 -4 -2 -1 -0 1 1 -0 -1 1 2 2 2 2 2 3 2 0
-12 -13 -13 -13 -13 -13 -13 -14 -14 -13 -13 -13 -13 -12 -12 -12 -11 -11 -10 -9 -7 -6 -4 -2 -1 -0 0 -0 -1 -1 -1 -0 1 1 0 -0 -0 -1
-12 -12 -12 -12 -13 -13 -13 -13 -13 -13 -13 -13 -13 -13 -12 -12 -12 -11 -11 -10 -9 -7 -6 -5 -3 -2 -1 -1 -2 -3 -2 -2 -1 0 0 -1 -2 -2
-11 -11 -12 -12 -12 -12 -12 -12 -13 -13 -13 -13 -13 -13 -13 -12 -12 -12 -12 -11 -11 -10 -9 -8 -7 -5 -3 -3 -3 -4 -3 -3 -3 -2 -1 0 0 -0
-11 -11 -11 -11 -11 -11 -12 -12 -12 -12 -13 -13 -13 -13 -13 -13 -13 -12 -12 -12 -11 -11 -10 -9 -8 -7 -6 -6 -6 -6 -5 -4 -3 -2 -2 -1 -0 -0
Wind_Speed
10 11 10 10 10 10 11 11 10 12 11 6 4 6 9 12 16 14 13 15 15 12 13 15 11 8 12 15 18 25 30 28 25 25 26 29 30 30
9 10 10 9 9 9 9 9 9 10 10 5 7 10 11 13 18 15 14 18 14 11 11 14 13 9 11 15 17 21 28 29 27 25 27 29 29 29
9 9 10 9 7 7 7 7 7 7 11 10 9 10 11 12 12 11 13 10 9 9 9 13 13 10 10 14 16 20 27 30 30 28 28 30 31 30
9 8 8 8 8 7 7 7 6 7 9 13 12 11 11 10 11 11 10 8 6 7 7 11 13 10 9 13 16 19 24 29 31 30 29 29 30 30
11 11 10 9 8 8 9 6 7 8 8 10 12 11 9 8 9 9 9 7 6 4 4 8 12 10 8 10 14 18 22 27 31 32 31 29 29 30
13 13 12 11 10 9 9 8 8 9 8 9 10 10 8 6 5 5 5 4 4 2 2 5 10 10 7 10 13 16 20 25 29 32 32 31 30 31
12 13 13 18 21 14 12 11 10 9 8 8 8 9 7 6 4 4 4 3 3 2 0 2 4 4 4 7 9 14 18 23 27 30 32 34 34 34
12 13 13 14 20 19 21 20 17 13 10 7 7 9 9 8 7 7 5 3 1 1 1 1 2 3 3 4 8 13 16 20 24 27 30 33 36 37
11 12 14 16 20 7 14 19 16 19 17 10 8 8 9 9 9 8 7 5 3 4 2 1 2 4 3 4 11 14 16 18 21 24 27 31 36 39
10 11 13 13 17 14 10 11 9 10 13 10 7 7 9 10 8 7 8 8 6 5 1 1 2 3 2 3 10 14 15 17 20 23 26 30 35 38
10 13 16 12 22 24 15 13 12 9 14 18 16 14 15 15 11 6 6 4 3 2 2 2 1 3 2 1 5 13 15 16 19 23 27 32 36 36
10 13 20 21 23 24 14 14 14 11 12 13 12 13 10 10 13 6 5 3 3 2 1 2 1 1 2 0 1 6 9 14 20 25 31 38 39 28
11 10 13 25 24 23 20 14 18 15 11 10 9 8 7 6 6 6 4 4 3 3 4 2 1 1 3 1 1 4 7 8 11 19 33 39 40 33
10 10 13 24 23 23 19 21 23 18 10 10 10 10 10 10 9 8 7 5 7 8 8 6 1 2 2 2 3 5 9 10 13 15 15 27 31 36
8 16 20 22 20 16 22 24 19 13 11 11 11 10 10 10 9 8 7 6 5 6 6 5 4 2 2 2 4 7 9 10 13 16 15 15 15 17
7 12 17 19 17 18 18 15 12 13 12 11 11 11 10 10 9 9 7 8 4 4 5 5 1 2 1 2 9 13 10 8 12 16 17 15 15 17
6 6 7 8 10 11 11 11 12 12 12 12 12 12 12 12 11 10 8 8 6 5 5 5 7 11 12 7 9 11 14 17 16 16 18 18 14 14
7 4 6 7 8 9 10 10 10 11 12 12 12 12 12 12 12 10 9 9 8 7 6 3 3 7 8 10 15 10 15 17 16 15 17 20 17 13
4 4 4 5 6 6 7 7 8 9 9 9 10 11 12 12 12 11 11 9 9 8 8 6 3 4 11 6 9 14 12 17 18 16 14 17 18 14
3 4 4 5 5 4 5 5 6 8 8 9 10 10 11 12 12 12 11 12 10 9 9 10 9 6 7 7 5 8 13 10 17 20 18 16 15 21
6 5 4 4 4 4 4 4 5 6 7 7 8 9 10 10 11 11 11 16 13 11 11 10 9 9 6 8 12 11 13 18 15 15 20 19 15 11
7 6 5 5 4 4 4 4 4 5 6 6 7 7 8 8 10 12 11 10 10 10 10 9 10 10 9 13 16 16 17 17 22 25 19 12 8 9
9 8 6 5 4 4 3 3 4 3 3 4 5 6 7 7 7 8 10 10 10 11 10 10 11 12 12 13 14 15 18 17 14 16 17 26 30 32
Wind_Direction
276 275 273 274 275 274 273 274 283 296 301 288 285 307 317 310 308 310 309 307 309 320 333 336 319 269 226 211 205 202 199 196 196 192 187 186 184 184
279 277 279 279 279 278 275 273 272 279 287 286 289 291 293 295 299 302 299 297 295 306 329 337 327 285 232 211 201 194 191 189 189 191 190 187 184 183
290 292 296 298 305 307 301 295 293 294 293 295 290 289 284 283 288 289 286 279 275 294 325 336 330 300 243 213 198 190 186 185 187 192 194 191 188 182
327 323 321 331 328 327 322 315 311 302 299 300 299 294 284 279 277 278 279 272 259 283 321 338 333 304 248 213 196 189 185 185 186 189 192 192 187 179
359 355 345 339 344 342 337 334 320 315 307 302 301 297 288 277 277 276 270 258 257 264 320 348 338 310 249 209 194 187 185 184 185 186 188 188 183 176
6 0 349 349 350 346 347 347 332 322 316 316 312 307 295 281 274 275 276 244 241 233 331 347 331 312 246 207 196 189 185 183 183 183 182 180 178 173
359 355 347 356 355 2 356 356 347 336 332 333 330 331 329 335 338 332 298 272 242 210 82 355 335 312 241 209 198 191 185 183 183 182 179 176 173 169
354 349 344 345 351 0 358 359 357 348 346 345 338 336 334 337 341 341 333 308 295 314 91 14 353 289 238 190 190 190 187 183 181 179 177 173 169 164
351 349 348 345 346 342 355 356 352 353 350 348 332 331 327 334 336 338 338 332 325 330 11 34 1 301 243 199 187 189 188 182 176 173 172 169 165 160
345 344 341 336 335 4 357 345 342 347 344 341 335 329 334 331 334 329 312 302 283 263 211 95 6 305 261 191 191 188 186 180 173 166 163 161 158 154
347 350 346 340 347 4 3 348 346 353 350 350 355 354 356 351 358 351 332 316 293 243 171 124 33 315 293 190 187 185 181 176 167 160 155 151 146 142
352 349 347 356 359 2 5 353 352 357 347 343 346 348 345 347 4 0 329 318 306 303 107 131 96 343 282 354 156 169 170 166 158 150 144 139 133 130
356 348 346 360 4 3 7 1 359 2 348 343 343 343 343 344 343 334 307 284 282 291 357 12 109 94 284 232 98 135 141 142 138 137 136 134 132 132
355 345 354 5 8 7 8 8 7 4 355 355 356 356 353 351 343 329 307 280 255 263 293 305 278 156 240 211 125 112 112 114 118 118 119 120 122 128
1 1 7 10 10 6 8 12 8 2 0 359 358 354 347 338 337 338 332 322 293 266 280 261 239 222 243 214 133 127 113 102 109 113 111 110 115 121
6 1 7 8 12 10 9 8 5 4 5 358 354 350 349 353 359 359 355 353 348 330 333 340 225 149 166 187 138 130 120 116 117 111 106 99 94 100
14 2 359 1 5 5 5 7 6 5 4 359 359 359 1 4 5 4 5 9 14 355 348 16 63 77 62 53 128 120 119 116 117 116 111 102 91 95
14 354 355 357 359 360 1 0 2 5 2 1 2 3 4 6 7 8 13 17 15 6 358 353 97 101 80 44 28 118 120 119 118 116 118 115 107 99
9 335 332 337 342 347 349 351 352 353 354 359 4 4 6 8 11 13 15 16 15 12 5 358 7 121 125 100 19 27 115 124 121 115 113 117 118 118
323 309 310 314 321 330 339 342 344 350 358 1 3 5 7 10 13 14 16 20 19 19 24 26 29 51 108 115 97 43 51 111 127 122 117 110 106 111
319 304 293 294 301 312 322 332 339 346 355 358 2 3 6 10 13 13 15 22 29 29 34 31 29 49 78 97 96 81 66 70 97 122 127 123 119 116
323 310 298 284 282 290 304 320 336 346 355 359 358 360 2 9 12 12 15 19 25 31 37 39 39 54 75 101 107 104 97 90 83 83 80 95 129 136
333 322 306 292 275 264 266 284 305 324 345 353 357 358 1 6 8 15 17 21 27 33 41 52 59 66 75 88 99 102 100 98 93 85 77 85 96 103
Height
1417 1416 1415 1414 1412 1410 1407 1405 1403 1397 1392 1389 1388 1386 1386 1385 1385 1385 1388 1393 1399 1403 1407 1412 1418 1424 1429 1436 1443 1450 1456 1463 1472 1481 1489 1496 1504 1511
1414 1413 1412 1410 1408 1405 1403 1401 1399 1396 1390 1386 1385 1382 1381 1380 1380 1381 1383 1387 1393 1398 1402 1407 1412 1418 1424 1431 1437 1443 1450 1456 1463 1474 1483 1491 1499 1507
1413 1412 1410 1408 1406 1403 1400 1397 1395 1392 1388 1382 1380 1377 1376 1375 1375 1376 1378 1382 1387 1392 1398 1403 1407 1413 1419 1425 1432 1438 1445 1451 1459 1468 1477 1486 1495 1502
1413 1412 1410 1408 1405 1401 1398 1395 1392 1389 1385 1379 1375 1373 1371 1371 1371 1372 1374 1377 1382 1387 1394 1398 1403 1409 1415 1420 1426 1433 1440 1447 1455 1463 1472 1481 1490 1498
1416 1413 1411 1408 1404 1400 1396 1393 1388 1385 1381 1377 1372 1369 1367 1367 1368 1369 1370 1373 1377 1382 1389 1394 1398 1404 1410 1416 1421 1428 1435 1442 1450 1458 1466 1475 1485 1493
1419 1415 1412 1408 1405 1400 1396 1391 1386 1382 1378 1374 1370 1367 1365 1365 1366 1366 1368 1370 1373 1378 1384 1389 1395 1400 1406 1411 1417 1423 1430 1437 1445 1453 1461 1469 1479 1488
1420 1416 1412 1409 1405 1401 1396 1390 1385 1381 1377 1372 1369 1365 1364 1364 1364 1365 1366 1367 1370 1374 1380 1386 1391 1397 1401 1406 1412 1418 1425 1432 1440 1448 1456 1463 1471 1481
1419 1415 1411 1407 1404 1399 1394 1389 1384 1380 1376 1372 1368 1365 1363 1362 1362 1363 1364 1366 1368 1372 1377 1382 1387 1393 1397 1403 1408 1414 1421 1428 1435 1442 1450 1458 1466 1473
1420 1415 1411 1407 1402 1397 1392 1387 1382 1377 1375 1372 1368 1364 1362 1361 1361 1361 1362 1363 1365 1368 1374 1379 1383 1387 1393 1399 1404 1410 1417 1423 1430 1438 1445 1453 1461 1468
1421 1416 1412 1407 1402 1397 1390 1385 1380 1376 1372 1368 1365 1363 1361 1360 1360 1360 1360 1361 1363 1366 1370 1376 1380 1385 1389 1395 1400 1406 1412 1419 1426 1433 1440 1448 1456 1464
1421 1416 1412 1408 1402 1397 1389 1384 1379 1375 1370 1366 1363 1360 1358 1358 1357 1358 1359 1361 1362 1364 1368 1372 1378 1383 1387 1391 1397 1402 1408 1415 1422 1429 1436 1444 1453 1462
1422 1417 1412 1408 1402 1397 1390 1384 1379 1374 1369 1364 1361 1358 1356 1354 1354 1355 1356 1358 1360 1363 1366 1371 1377 1382 1385 1388 1394 1399 1405 1412 1418 1425 1432 1440 1449 1458
1423 1418 1413 1409 1402 1397 1392 1386 1382 1375 1369 1364 1359 1356 1354 1352 1352 1353 1354 1356 1358 1361 1366 1371 1375 1379 1383 1385 1391 1397 1403 1408 1415 1423 1430 1437 1444 1451
1425 1420 1415 1410 1404 1398 1393 1388 1381 1376 1369 1364 1359 1354 1351 1349 1349 1350 1352 1354 1357 1360 1363 1368 1373 1377 1381 1382 1386 1393 1400 1406 1412 1419 1427 1435 1443 1451
1427 1423 1418 1412 1405 1399 1395 1389 1383 1377 1372 1366 1361 1356 1353 1349 1348 1348 1350 1352 1355 1358 1362 1366 1370 1375 1379 1380 1382 1387 1394 1404 1410 1417 1425 1433 1439 1446
1428 1424 1419 1414 1409 1403 1398 1392 1387 1382 1377 1371 1366 1361 1356 1352 1349 1348 1349 1352 1354 1357 1361 1364 1368 1373 1376 1378 1380 1385 1391 1399 1409 1416 1424 1433 1440 1447
1429 1425 1420 1415 1410 1406 1401 1397 1392 1386 1381 1376 1371 1365 1360 1355 1352 1351 1351 1352 1355 1357 1360 1363 1366 1370 1374 1376 1379 1383 1389 1397 1407 1414 1422 1432 1443 1450
1430 1426 1422 1418 1414 1410 1406 1401 1397 1392 1387 1382 1377 1371 1366 1361 1357 1355 1353 1354 1355 1357 1359 1362 1366 1368 1373 1377 1380 1383 1387 1394 1406 1416 1424 1432 1444 1455
1430 1427 1424 1421 1418 1414 1411 1406 1402 1398 1393 1388 1383 1377 1372 1368 1363 1360 1358 1357 1357 1357 1359 1362 1365 1368 1371 1376 1383 1388 1389 1395 1405 1417 1426 1434 1443 1456
1430 1427 1425 1422 1420 1417 1414 1410 1406 1402 1398 1393 1388 1384 1379 1375 1371 1367 1364 1363 1361 1360 1360 1362 1364 1368 1371 1375 1382 1391 1397 1400 1405 1413 1425 1435 1445 1456
1431 1428 1425 1423 1421 1418 1416 1413 1410 1406 1402 1398 1394 1390 1386 1382 1378 1375 1372 1369 1367 1365 1364 1364 1365 1369 1373 1377 1382 1392 1401 1407 1411 1415 1424 1434 1444 1454
1433 1429 1426 1423 1420 1419 1417 1415 1413 1410 1407 1403 1400 1396 1393 1390 1386 1383 1379 1376 1373 1371 1370 1371 1371 1373 1376 1378 1383 1391 1401 1409 1416 1422 1430 1436 1442 1451
1434 1430 1427 1423 1420 1418 1417 1416 1414 1413 1410 1408 1405 1402 1399 1396 1393 1390 1387 1384 1381 1379 1378 1378 1378 1379 1381 1384 1388 1394 1402 1410 1418 1426 1434 1442 1448 1455